Orbital Elements at Epoch 2459200.5 (2020-Dec-17.0) TDB
Reference: JPL 30 (heliocentric ecliptic J2000)
Element | Value | Uncertainty (1-sigma) | Units |
e | .2475540483699578 | 1.6467e-08 | |
a | 2.394536875143088 | 6.8008e-09 | au |
q | 1.801759577730268 | 4.1249e-08 | au |
i | 13.6169425200679 | 1.2678e-06 | deg |
node | 54.21077004021569 | 3.2011e-06 | deg |
peri | 341.3912124807646 | 4.6602e-06 | deg |
M | 353.3188263596728 | 6.2616e-06 | deg |
tp | 2459225.617764210779 (2021-Jan-11.11776421) | 2.3588e-05 | TDB |
period | 1353.414175812034 3.71 | 5.7658e-06 1.579e-08 | d yr |
n | .2659939628488108 | 1.1332e-09 | deg/d |
Q | 2.987314172555907 | 8.4844e-09 | au |
|
| | Orbit Determination Parameters
Additional Information
|